Flag for U.S.A. Weather past 2 weeks in Oklahoma City, Oklahoma, U.S.A.

Now
74 °F

Partly cloudy.


Feels Like: 74 °F
Forecast: 71 / 92 °F
Wind: 7 mph from Southeast

Location: Will Rogers World Airport

Current Time: Aug 3, 2015 at 2:41:14 AM

Latest Report: Aug 3, 2015 at 1:52 AM


Visibility: 10 mi

Pressure: 29.86 "Hg

Humidity: 79%

Dew point: 67 °F

Location of Oklahoma CityLocation

Historic Weather in Oklahoma City — Graph

°F

Oklahoma City temperature yesterday

Maximum temperature yesterday: 88 °F (at 4:52 PM)
Minimum temperature yesterday: 71 °F (at 1:52 AM)
Average temperature yesterday: 78 °F

Past Weeks' High & Low Weather Summary

 TemperatureHumidityPressure
High98 °F (Jul 20, 2:52 PM)100% (Jul 21, 5:52 AM)30.16 "Hg (Jul 21, 5:52 AM)
Low71 °F (Jul 26, 6:52 AM)38% (Jul 20, 2:52 PM)29.76 "Hg (Jul 22, 6:52 PM)
Average82 °F72%29.92 "Hg
* Reported Jul 19 12:52 AM — Aug 3 12:52 AM, Oklahoma City, Weather by CustomWeather, © 2015

Note: Actual official high and low records may vary slightly from our data, if they occured in-between our weather recording intervals... More about our weather records

Advertising

Oklahoma City weather history for previous 24 hours

 ConditionsComfort  
Time TempWeatherWind HumidityBarometerVisibility
12:52 AM
Mon, Aug 3
74 °FPartly cloudy.5 mph82%29.88 "Hg10 mi
11:52 PM
Sun, Aug 2
74 °FPartly cloudy.7 mph79%29.87 "Hg10 mi
10:52 PM76 °FHigh level clouds.6 mph74%29.87 "Hg10 mi
9:52 PM76 °FHigh level clouds.7 mph74%29.86 "Hg10 mi
8:52 PM76 °FPartly sunny.7 mph74%29.85 "Hg10 mi
7:52 PM82 °FPartly sunny.8 mph56%29.84 "Hg10 mi
6:52 PM87 °FScattered clouds.10 mph50%29.83 "Hg10 mi
5:52 PM88 °FScattered clouds.14 mph52%29.85 "Hg10 mi
4:52 PM88 °FPartly sunny.12 mph46%29.86 "Hg10 mi
3:52 PM86 °FPartly sunny.13 mph59%29.88 "Hg10 mi
2:52 PM83 °FScattered clouds.14 mph65%29.91 "Hg10 mi
1:52 PM76 °FLight rain. Broken clouds.9 mph80%29.94 "Hg10 mi
12:52 PM81 °FMostly cloudy.7 mph60%29.95 "Hg10 mi
11:52 AM79 °FMostly cloudy.10 mph67%29.95 "Hg10 mi
10:52 AM76 °FLight rain. Mostly cloudy.9 mph77%29.95 "Hg10 mi
9:52 AM79 °FMostly cloudy.13 mph67%29.95 "Hg10 mi
8:52 AM77 °FMostly cloudy.7 mph77%29.94 "Hg10 mi
7:52 AM73 °FMostly cloudy.6 mph84%29.93 "Hg10 mi
6:52 AM73 °FPassing clouds.3 mph90%29.92 "Hg10 mi
5:52 AM73 °FMostly cloudy.3 mph88%29.90 "Hg10 mi
4:52 AM73 °FPassing clouds.3 mph90%29.90 "Hg10 mi
3:52 AM73 °FPassing clouds.3 mph90%29.91 "Hg10 mi
2:52 AM72 °FPassing clouds.3 mph91%29.92 "Hg10 mi
Weather by CustomWeather, © 2015

See weather overviewHow to use our weather pages